Regional Weather Roundup
Issued by NWS Cleveland, OH

Home | Current Version | Previous Version | Text Only | Print | Product List | Glossary Off
Versions: 1 2 3 4 5 6 7 8 9 10 11 12 13 14 15 16 17 18 19 20 21 22 23 24 25 26 27 28 29 30 31 32 33 34 35 36 37 38 39 40 41 42 43 44 45 46 47 48 49 50

000
ASUS41 KCLE 301102
RWRCLE
OHIO REGIONAL WEATHER ROUNDUP
NATIONAL WEATHER SERVICE CLEVELAND, OH
700 AM EDT WED JUL 30 2014

NOTE: "FAIR" INDICATES FEW OR NO CLOUDS BELOW 12,000 FEET WITH NO
SIGNIFICANT WEATHER AND/OR OBSTRUCTIONS TO VISIBILITY.

OHZ001>008-015>018-024>027-034-035-043-044-301200-
   NORTHWEST OHIO

CITY           SKY/WX    TMP DP  RH WIND       PRES   REMARKS
DEFIANCE       CLOUDY    60  58  92 CALM      30.01R
FINDLAY        CLOUDY    58  56  93 S3        30.01R FOG
TOLEDO EXPRESS MOCLDY    56  55  97 CALM      30.00R FOG
TOLEDO EXEC    CLOUDY    59  55  87 SW5       30.00S
LIMA           PTCLDY    57  55  93 S5        30.02S FOG
$$

OHZ009>014-019>023-028>033-038-089-301200-
   NORTHEAST OHIO

CITY           SKY/WX    TMP DP  RH WIND       PRES   REMARKS
CLE-HOPKINS    MOCLDY    58  54  86 SW7       30.02R
CLE-LAKEFRONT  MOCLDY    61  56  83 SW9       29.98S
CUY CO. ARPT   MOCLDY    59  57  94 SW12      30.00
LORAIN-ELYRIA  PTCLDY    60  56  86 SW7       30.01R
ASHTABULA      MOCLDY    57  53  86 SW8       30.00R
AKRON-CANTON   PTCLDY    57  51  80 SW7       30.02R
WOOSTER        PTCLDY    55  52  89 SW5       30.03R
MANSFIELD      CLEAR     57  56  96 SW6       30.03R
YOUNGSTOWN     CLOUDY    58  51  78 SW6       30.01S
$$

OHZ042-051>053-060>062-070>072-077>081-301200-
  SOUTHWEST OHIO

CITY           SKY/WX    TMP DP  RH WIND       PRES   REMARKS
CINC-COVINGTON PTCLDY    58  55  90 CALM      30.07R
CINC-LUNKEN    PTCLDY    56  56 100 CALM      30.07R
HAMILTON       CLEAR     55  54  96 CALM      30.07R FOG
DAYTON         PTCLDY    58  56  93 SW7       30.06R
WRIGHT-PAT AFB CLEAR     56  55  97 SW2       30.06R
DAYTON GENERAL CLEAR     57  56  96 CALM      30.06R
WILMINGTON     CLEAR     54  52  93 S5        30.07R
$$

OHZ036-037-039>041-045>050-054>059-063>069-073>076-082>088-301200-
  CENTRAL AND SOUTHEAST OHIO

CITY           SKY/WX    TMP DP  RH WIND       PRES   REMARKS
COLUMBUS       CLEAR     59  53  80 S5        30.04R
OSU AIRPORT    CLEAR     57  55  93 S5        30.04R
BOLTON FIELD   FOG       52  52 100 CALM      30.05R VSB 3/4
RICKENBACK AFB CLEAR     56  50  82 S3        30.05R
NEWARK         CLEAR     53  51  93 CALM      30.04R
MARION         PTCLDY    55  53  93 S5        30.04R FOG
LANCASTER      CLEAR     54  52  93 CALM      30.06R
ZANESVILLE     CLEAR     57  52  83 SW6       30.05R
NEW PHILLY     CLEAR     53  52  96 SE5       30.04S
$$



USA.gov is the U.S. government's official web portal to all federal, state and local government web resources and services.